Theta_e
344 341 339 338 336 334 331 324 320 318 315 321 325 328 330 330 327 326 325 331 330 331 332 333 333 334 335 339 342 343 344 344 345 344 343 345 343 339 346 347 350 350 349
341 338 336 334 333 331 329 329 327 326 328 328 326 328 327 325 323 324 323 327 329 332 332 329 329 331 332 332 333 337 339 340 342 343 343 342 343 341 341 343 343 344 344
338 336 333 331 330 329 329 329 328 326 326 326 325 325 325 325 318 320 324 325 327 328 328 328 328 328 329 330 332 332 332 336 338 340 340 342 343 345 346 341 341 343 341
335 333 331 329 329 328 328 326 325 323 324 324 323 324 323 318 308 309 315 324 325 325 325 325 326 326 325 327 328 328 329 329 333 336 337 339 340 342 343 344 342 341 340
333 331 329 328 327 324 323 319 317 321 320 320 319 318 316 311 304 304 318 322 323 323 324 323 323 323 323 323 323 324 324 326 330 331 333 336 338 337 342 343 342 343 344
330 330 328 326 325 324 323 321 320 318 318 318 318 314 305 309 304 305 316 320 321 321 318 316 320 319 318 319 321 322 324 326 326 330 332 333 334 335 336 338 341 343 342
329 327 326 325 324 322 317 317 317 316 316 317 317 317 311 304 304 307 315 318 320 320 320 315 317 314 315 317 319 321 322 324 326 328 329 330 331 332 332 333 335 338 340
326 325 324 323 323 319 318 317 318 318 318 318 317 317 317 307 305 309 314 316 317 318 319 317 315 314 313 314 317 318 320 323 324 324 326 326 326 325 326 327 327 330 332
325 323 322 323 322 320 319 319 319 319 319 319 318 317 316 315 307 307 313 314 315 315 316 313 312 305 307 308 316 316 318 319 320 321 322 323 324 326 327 328 329 330 331
324 322 321 322 321 320 320 320 320 321 320 320 319 320 318 317 309 307 308 313 314 315 313 313 312 304 305 307 310 310 313 315 319 320 320 322 322 323 325 328 330 331 330
323 322 320 320 320 320 320 320 320 320 321 321 320 320 320 319 316 313 309 311 308 315 313 312 312 308 309 311 311 311 310 311 314 315 317 319 319 320 322 323 324 326 326
323 322 321 321 321 320 321 321 321 321 322 320 318 318 318 318 317 314 312 310 309 313 313 312 312 311 311 312 312 312 312 313 313 312 312 313 315 316 317 318 319 321 322
322 322 322 321 319 319 320 320 322 319 319 318 317 317 317 317 317 314 313 312 312 312 313 312 312 311 312 313 312 312 312 313 313 313 313 313 312 311 313 315 315 316 319
322 321 321 320 320 319 320 319 319 318 317 316 316 317 317 317 317 314 313 313 313 312 311 314 313 312 312 311 311 311 311 312 311 312 312 312 312 311 310 310 313 315 316
321 320 320 318 319 319 318 317 316 316 313 313 314 315 315 315 314 311 312 312 311 311 311 314 315 314 313 313 312 311 311 310 310 310 311 311 311 310 310 310 310 311 313
320 319 318 317 318 318 318 319 318 316 315 314 312 313 313 313 313 312 312 312 312 311 311 314 314 314 313 312 312 312 312 311 311 310 309 310 310 309 309 309 309 310 311
318 318 316 318 318 318 318 318 318 317 317 316 316 316 316 315 316 316 314 313 312 312 312 314 313 314 313 312 312 311 312 311 310 310 309 309 309 309 308 308 308 308 309
319 317 318 319 319 319 319 319 318 318 318 318 318 318 317 317 318 317 316 315 314 315 313 314 314 314 313 313 313 311 311 311 311 311 310 309 309 308 308 308 307 308 308
318 316 318 319 319 319 318 318 318 318 319 318 319 318 319 319 318 317 316 316 316 315 316 315 315 313 313 312 312 311 311 311 310 311 310 308 307 307 307 306 307 307 307
318 319 318 318 319 319 319 319 319 319 319 319 319 319 319 319 317 314 315 315 315 316 316 314 314 313 314 313 312 311 311 309 309 309 308 307 306 305 305 305 306 306 306
318 320 317 317 318 319 319 318 319 319 319 319 319 319 316 314 313 314 314 317 317 317 315 315 314 313 312 312 311 311 309 309 308 307 306 305 304 303 304 305 305 305 305
318 319 320 319 319 319 320 318 318 320 319 318 317 316 314 312 312 313 315 315 314 313 313 313 311 311 310 310 308 307 307 305 305 305 303 302 302 302 303 303 304 305 305
320 319 319 319 320 320 320 320 319 319 318 316 314 313 312 311 311 311 312 311 310 309 309 308 308 307 307 306 305 304 304 304 303 301 301 301 301 301 302 302 303 304 304
320 319 319 320 320 320 319 320 318 317 315 314 313 311 311 310 309 308 308 307 307 306 305 305 305 305 304 304 305 305 305 302 300 300 301 301 301 302 302 302 303 303 304
320 320 320 320 321 321 321 319 317 315 313 312 311 310 310 308 308 307 306 306 305 305 304 304 304 304 305 305 305 304 303 300 301 301 302 302 303 302 302 303 303 303 304
321 321 322 321 321 321 319 317 314 313 312 311 310 310 308 307 307 306 305 305 304 303 303 304 305 305 305 305 305 304 301 300 301 301 301 303 303 301 302 303 303 303 303
Wind_Speed
11 10 7 4 3 2 2 5 7 9 9 9 9 10 11 10 10 10 9 10 13 12 11 12 14 15 17 18 17 19 18 18 21 22 16 18 20 20 20 21 19 18 21
9 6 5 4 4 3 3 4 5 5 6 7 7 8 6 10 12 14 14 12 9 12 13 13 13 11 12 14 14 19 20 17 20 25 22 19 20 16 20 25 27 30 30
9 7 6 4 4 4 4 4 5 5 7 7 8 9 11 10 12 12 12 12 13 10 11 11 13 14 10 9 10 13 15 18 21 22 24 21 19 19 15 17 17 21 32
9 7 6 5 5 4 4 5 7 8 8 9 8 9 9 12 12 12 10 12 12 11 11 11 13 15 14 13 14 14 17 18 17 20 22 20 19 21 18 20 17 18 20
8 6 5 5 4 5 7 8 8 8 8 8 9 9 9 12 14 13 11 12 12 11 9 8 10 13 15 16 17 16 17 16 15 16 19 20 19 19 17 20 22 20 23
9 8 7 7 8 8 8 8 9 9 9 9 10 10 12 13 14 12 12 12 12 12 13 13 11 15 16 14 12 11 12 14 15 16 16 17 19 20 20 21 22 24 25
9 9 8 9 9 8 8 8 8 8 8 8 8 8 11 16 15 12 11 9 10 11 14 17 16 18 21 20 16 12 12 10 10 16 15 15 18 17 20 21 23 24 29
10 10 9 9 9 8 8 7 7 5 5 5 5 6 6 14 16 11 12 9 10 10 11 13 17 18 22 23 20 17 15 11 13 15 18 21 22 23 24 24 25 27 32
10 9 9 9 8 9 8 6 4 3 2 2 3 4 6 9 16 15 12 10 9 10 10 17 21 21 21 21 18 19 19 16 15 15 13 15 18 17 21 22 22 23 27
10 9 9 9 9 8 6 4 2 1 1 1 3 4 8 7 14 17 14 11 9 9 10 14 19 22 20 22 20 24 21 20 19 20 18 16 18 17 15 15 18 19 22
11 10 10 11 10 7 6 4 2 2 1 3 5 4 3 9 10 18 19 12 14 9 11 12 14 21 18 20 22 25 22 22 20 18 17 16 17 16 15 16 17 20 25
12 11 11 9 6 5 5 3 2 2 1 4 5 6 4 8 10 14 19 19 19 10 11 14 12 19 20 17 20 23 21 19 19 18 19 19 19 19 20 19 17 19 20
13 11 9 8 8 6 6 3 1 5 4 5 5 6 6 7 8 15 14 17 16 16 14 14 16 19 19 18 21 19 20 18 20 19 20 20 20 21 21 22 21 19 20
13 11 9 7 6 6 3 1 1 2 5 7 7 7 8 8 8 11 11 12 14 15 20 11 12 15 16 16 17 16 16 17 19 20 21 20 20 21 21 20 22 22 22
12 10 9 7 7 4 5 2 1 3 6 8 7 8 9 9 11 12 15 15 14 16 19 15 15 14 15 15 16 16 17 19 20 21 20 21 22 22 22 22 21 21 22
12 11 9 8 5 3 2 4 5 5 7 8 7 8 6 8 12 16 17 17 18 17 17 14 15 15 17 16 17 19 20 20 21 19 22 22 22 23 23 23 21 21 22
11 11 10 7 4 3 3 4 5 7 9 11 12 11 12 12 14 18 19 19 17 17 15 15 16 17 16 16 16 19 20 23 22 21 22 22 23 23 24 24 23 22 22
13 13 8 5 3 3 4 5 6 6 7 10 16 17 16 13 16 21 20 20 19 18 14 15 16 16 19 18 16 21 23 22 21 22 23 23 23 24 25 25 24 23 23
11 8 5 4 3 4 5 5 6 8 10 15 14 17 19 13 16 23 22 21 19 18 16 16 12 21 20 20 20 21 23 20 25 23 25 24 24 24 25 25 25 24 24
10 8 6 4 5 6 5 6 9 10 14 14 16 17 16 14 20 21 18 18 14 13 13 16 16 17 18 18 19 21 21 22 22 22 24 24 23 23 24 24 24 24 23
7 8 1 4 4 5 6 8 11 14 15 18 18 17 16 15 18 16 16 8 9 11 14 15 16 17 16 17 19 17 21 20 22 23 23 22 23 25 23 23 23 23 23
6 6 5 4 5 6 8 11 14 14 16 18 17 16 18 16 15 14 12 14 16 14 13 15 15 15 14 16 17 18 19 20 20 18 21 24 24 23 23 23 23 22 22
6 5 5 6 8 9 11 11 15 16 15 17 16 15 15 15 14 13 13 12 12 12 13 12 13 14 13 13 15 15 16 15 20 24 22 22 23 22 22 22 22 23 22
6 5 7 8 8 9 14 12 16 11 13 14 15 14 14 13 12 12 12 12 12 12 12 12 12 12 13 14 14 12 15 22 25 22 23 26 22 23 22 22 21 21 22
5 8 8 10 13 12 10 14 14 14 13 13 14 13 12 12 12 12 12 12 12 12 12 12 12 13 13 15 14 13 22 26 21 22 25 28 29 25 19 20 21 23 22
7 8 11 12 11 8 10 12 13 12 12 13 12 12 11 10 11 12 11 11 12 13 12 12 13 13 14 13 17 23 28 22 22 23 26 28 26 20 19 20 21 22 22
Wind_Direction
135 136 134 135 161 116 329 310 307 315 334 340 342 351 356 344 327 327 328 335 336 327 326 316 313 312 308 285 288 289 282 273 278 283 278 290 296 267 250 240 242 229 239
139 131 123 121 108 77 58 24 11 5 11 2 1 10 320 352 349 348 348 345 336 346 343 342 337 326 317 318 301 296 289 284 281 277 278 275 287 291 273 265 257 245 245
130 129 123 105 89 70 56 49 33 36 32 22 14 18 10 3 356 354 350 346 339 351 336 339 339 345 326 304 308 302 297 296 283 283 282 281 268 282 283 287 280 270 252
143 135 116 104 96 92 79 69 62 53 51 45 39 36 21 8 0 359 5 0 355 347 340 341 330 318 320 318 314 307 301 298 300 297 288 287 286 269 257 271 264 275 267
131 125 118 112 105 103 93 84 77 70 55 54 49 42 40 5 10 14 41 0 2 0 358 342 319 326 308 306 313 318 317 313 312 302 296 299 296 292 276 266 267 262 261
138 132 127 126 118 109 95 85 84 74 64 59 52 40 35 24 18 25 38 13 9 4 8 10 22 334 345 339 329 321 316 325 315 308 303 298 302 300 296 288 278 273 275
138 137 135 127 120 111 103 98 91 81 70 60 50 40 22 30 26 35 50 18 15 17 3 16 17 9 7 360 356 352 332 314 315 300 301 301 302 307 300 298 286 281 270
144 142 141 136 129 124 117 108 94 85 77 64 45 41 21 21 30 46 49 18 13 13 11 6 9 3 6 5 5 358 354 349 310 301 287 287 288 298 292 292 297 297 291
147 146 146 145 137 133 133 131 132 105 74 32 6 4 29 352 20 31 46 18 13 10 357 2 353 358 4 8 11 2 359 353 346 329 323 297 287 286 293 294 291 287 287
151 147 144 147 149 148 152 146 146 185 301 46 338 324 332 356 5 17 29 11 7 12 3 357 340 353 360 9 15 5 358 357 355 354 352 337 329 322 305 308 306 296 290
152 147 146 149 150 158 156 164 170 266 5 354 338 309 279 316 334 7 6 11 6 6 353 345 339 354 3 11 9 358 9 12 359 349 349 345 342 340 334 320 314 303 297
152 154 157 159 152 172 168 178 190 324 293 347 351 1 319 329 333 349 355 3 10 2 344 339 341 353 5 360 359 352 3 4 347 348 347 349 344 340 335 336 317 310 297
155 161 165 170 175 181 175 185 274 351 4 349 337 335 331 336 342 350 350 354 354 355 329 333 355 352 352 352 343 348 352 341 339 340 340 341 338 340 341 333 336 323 321
162 167 176 174 177 183 162 203 32 343 330 322 321 319 320 321 324 334 332 334 336 339 333 336 350 351 351 349 350 349 346 341 339 335 334 333 332 334 335 336 336 334 333
170 171 172 174 145 157 155 160 15 326 329 321 299 300 310 316 316 322 319 320 317 329 341 330 328 337 342 345 347 346 345 343 341 337 336 333 332 331 331 330 333 335 334
170 171 168 169 163 178 252 290 285 308 343 358 25 18 357 316 311 306 309 315 316 313 321 321 331 331 339 334 333 337 340 339 337 335 334 331 329 328 327 328 327 325 330
168 169 172 169 190 230 275 297 299 288 313 315 312 316 320 327 323 324 311 307 309 304 293 310 310 316 320 322 321 322 327 322 325 330 328 327 325 323 324 324 324 323 321
170 174 170 186 212 258 284 287 287 294 314 316 332 322 310 309 321 324 318 307 306 303 280 287 301 312 314 312 317 318 323 324 319 323 322 322 322 320 320 319 319 318 317
166 176 181 202 239 268 283 276 291 300 303 305 304 317 317 302 333 323 305 295 292 304 300 316 319 315 310 307 310 312 317 319 322 315 319 320 319 318 316 314 313 314 314
181 195 206 233 250 271 281 291 298 307 305 311 308 314 309 311 317 312 311 309 305 287 290 306 309 308 323 309 313 310 313 317 318 318 317 316 315 314 313 312 312 311 310
189 197 293 234 242 264 298 302 302 307 311 308 317 304 314 329 316 312 313 326 323 310 321 316 310 312 314 311 319 318 313 314 315 314 314 313 312 312 310 308 308 307 307
190 208 220 234 263 278 288 302 300 302 307 317 315 312 324 325 314 310 317 320 310 315 309 301 315 312 311 316 313 312 311 313 315 316 315 314 313 311 307 305 304 306 307
189 209 236 265 278 283 288 307 307 311 311 313 308 310 311 312 311 310 312 313 314 309 313 314 307 311 311 310 315 314 318 309 314 317 319 317 315 312 310 308 305 304 304
209 235 264 279 286 295 305 296 314 317 319 308 308 310 308 309 309 310 312 310 311 311 313 311 310 313 311 317 318 322 300 307 318 324 324 325 321 315 311 309 307 305 304
231 268 276 289 289 284 292 312 312 309 306 307 309 306 304 305 307 308 311 311 314 316 317 316 315 310 316 320 318 295 309 317 318 322 326 327 324 316 312 313 308 304 302
282 302 309 302 305 299 305 305 309 306 306 309 304 301 301 305 306 308 313 313 316 319 318 317 314 314 319 326 289 301 309 313 319 322 325 328 329 316 309 307 309 309 305